Temp
4 2 2 2 2 2 2 1 2 1 2 5 4 4 2 2 2 2 3 3 3 2 6 6 5 5 6 6 6 6 7 7 7 6 6 6 7 6 5 5 6 5 5 5 6 6 6
3 2 2 2 2 2 2 1 1 1 1 2 2 1 1 3 2 2 3 4 4 4 4 4 6 6 6 6 6 7 6 7 7 6 6 6 6 6 5 5 5 5 5 5 6 6 5
2 2 2 2 2 2 2 2 1 1 1 1 1 1 1 2 3 3 3 4 5 5 5 5 5 6 5 5 6 5 6 6 6 6 6 6 6 6 6 5 5 5 3 3 4 5 4
2 2 2 2 2 2 2 2 2 1 1 1 2 2 3 3 3 3 3 5 5 5 5 6 5 5 4 4 5 5 4 5 5 5 6 6 6 6 6 5 5 4 3 2 5 5 6
2 2 1 2 2 2 2 3 2 1 2 1 1 2 2 2 3 3 4 4 4 5 5 5 5 5 4 4 5 5 5 5 5 5 5 5 6 5 5 2 1 2 -1 3 4 5 6
1 1 1 2 2 2 3 4 2 1 1 2 1 1 2 2 3 3 4 4 4 5 4 5 6 6 4 4 4 4 5 5 5 5 5 5 5 2 2 1 1 2 -1 2 3 5 5
1 1 1 2 2 3 2 4 3 2 2 3 2 2 2 2 3 3 4 3 5 5 5 4 4 4 4 4 4 4 5 5 5 5 3 4 2 -0 2 2 2 2 2 2 4 5 5
2 1 1 1 2 2 2 2 4 3 3 2 2 2 1 1 2 2 4 3 2 3 4 4 5 4 4 4 4 4 5 5 5 3 4 3 2 3 3 3 3 3 2 3 4 5 5
4 1 1 1 2 2 2 3 5 6 5 3 2 2 1 1 1 3 2 1 2 3 4 3 4 4 4 4 4 4 5 5 5 4 3 3 5 5 4 3 3 2 2 3 4 5 6
5 2 2 1 2 2 2 4 6 6 6 5 3 2 2 2 2 1 1 1 2 2 1 2 3 3 4 5 5 5 5 5 5 4 4 3 4 4 4 4 4 4 5 5 5 5 6
5 6 1 1 2 2 2 3 4 6 6 5 4 3 3 3 1 1 1 1 2 3 4 3 3 3 4 4 5 5 5 5 6 6 6 5 5 5 5 6 6 5 6 6 6 6 6
5 5 4 1 2 2 2 2 3 5 6 6 4 3 3 3 2 1 1 3 4 2 4 4 3 4 4 4 5 5 5 5 5 5 6 4 6 6 5 6 6 6 6 6 5 6 6
5 5 6 5 2 2 2 2 4 4 5 6 5 4 3 3 3 3 3 3 1 2 3 4 4 4 5 5 5 5 5 4 4 4 4 5 6 6 6 6 6 5 6 6 5 8 7
6 6 6 7 4 4 2 3 3 4 5 5 6 6 4 4 3 2 3 -0 2 5 4 4 5 4 5 5 6 5 5 5 4 4 5 4 4 6 6 7 7 7 7 7 7 7 8
6 6 6 6 7 5 6 6 6 5 5 5 5 6 6 5 5 4 3 2 4 5 5 5 5 6 5 5 6 5 5 5 6 4 5 7 6 6 6 7 7 7 7 7 7 7 7
5 6 6 7 7 6 7 7 7 7 6 7 6 7 7 7 7 7 3 5 4 5 5 6 6 6 6 6 5 5 6 6 6 6 6 7 6 7 8 6 7 7 8 7 7 8 8
6 6 6 6 7 7 7 7 7 7 7 7 7 7 7 8 8 7 3 3 4 5 5 5 6 6 7 5 6 7 7 7 7 6 6 6 6 7 8 7 9 7 7 6 6 7 8
5 6 6 6 6 7 7 6 7 7 8 7 7 1 7 9 5 1 1 3 4 5 5 5 6 8 6 6 6 6 7 7 8 6 5 6 6 5 8 9 9 9 8 7 7 7 6
6 5 5 6 6 6 6 6 6 7 6 5 6 6 7 9 1 -1 2 4 4 4 5 5 7 6 7 7 7 7 7 9 8 6 7 7 6 6 8 9 9 7 7 7 7 6 6
7 6 5 6 6 6 6 6 5 5 5 5 5 -0 6 6 2 2 1 2 3 6 6 6 5 7 7 6 6 7 7 8 8 8 8 8 5 6 6 7 6 7 7 7 7 6 7
7 6 5 5 6 6 5 6 5 6 5 5 5 -1 1 -1 1 1 2 2 3 4 5 6 6 4 5 6 6 5 6 6 8 7 7 6 7 4 6 6 6 7 6 6 6 6 7
7 6 5 5 5 6 6 6 7 6 6 5 5 3 3 1 2 2 1 3 3 3 4 5 5 4 4 5 5 5 5 6 7 5 6 4 5 5 7 7 6 7 7 7 7 7 6
7 7 6 5 5 5 6 6 6 6 5 5 4 4 3 0 1 1 1 3 4 4 6 5 4 4 6 5 5 5 5 5 5 5 5 5 4 4 5 4 6 8 8 7 7 7 6
7 6 6 5 6 5 6 6 6 5 5 5 4 4 4 1 1 2 2 3 4 3 4 6 6 5 7 7 7 6 5 5 5 5 4 5 4 2 2 4 5 8 7 7 7 6 6
7 6 5 5 6 6 5 6 5 5 4 4 4 4 4 0 1 2 2 4 4 5 5 5 6 6 7 6 5 5 4 7 7 6 5 3 3 3 3 1 6 7 7 7 7 8 5
7 5 4 5 6 6 5 5 5 5 4 4 4 3 3 2 1 3 2 3 2 3 3 5 7 7 7 3 4 6 6 6 6 4 5 4 2 3 4 5 9 8 7 7 7 5 5
7 5 5 4 5 5 5 4 4 4 4 4 4 3 3 3 3 4 2 2 3 2 2 3 6 6 6 3 5 4 3 4 5 5 6 3 3 4 3 3 4 5 7 7 7 7 6
7 6 4 4 4 5 5 4 4 4 4 4 3 3 3 3 4 4 4 4 3 3 2 4 3 4 2 4 3 3 2 2 3 3 5 4 4 3 2 3 4 6 6 6 6 7 7
7 6 4 4 4 4 4 4 3 3 3 3 4 4 3 3 4 4 4 4 5 5 4 4 2 3 3 0 1 1 3 0 1 3 3 3 3 4 3 4 6 7 8 9 8 7 7
Height
1517 1511 1504 1498 1492 1485 1478 1469 1459 1446 1424 1417 1423 1432 1441 1448 1449 1452 1454 1454 1452 1454 1455 1457 1458 1462 1467 1469 1471 1475 1474 1478 1481 1485 1487 1488 1489 1493 1497 1500 1501 1501 1501 1502 1501 1498 1497
1516 1511 1505 1498 1492 1486 1479 1472 1463 1452 1437 1423 1426 1436 1443 1447 1450 1451 1453 1452 1450 1451 1452 1453 1455 1459 1462 1468 1474 1477 1478 1478 1482 1485 1488 1490 1492 1494 1497 1500 1502 1502 1501 1499 1497 1492 1493
1516 1511 1504 1498 1492 1487 1481 1475 1466 1460 1452 1446 1443 1445 1446 1449 1451 1451 1450 1449 1449 1447 1449 1451 1453 1459 1464 1469 1473 1476 1479 1482 1484 1486 1489 1491 1493 1496 1498 1500 1501 1501 1501 1498 1491 1491 1490
1516 1511 1506 1500 1494 1487 1481 1477 1470 1464 1461 1457 1454 1450 1450 1450 1450 1449 1448 1447 1446 1444 1446 1450 1456 1457 1462 1470 1473 1477 1482 1486 1486 1489 1492 1493 1495 1497 1499 1501 1500 1502 1503 1507 1491 1491 1488
1517 1514 1506 1500 1494 1488 1482 1476 1473 1467 1463 1461 1457 1454 1452 1450 1448 1448 1447 1447 1446 1442 1445 1452 1457 1460 1469 1473 1476 1480 1483 1486 1487 1491 1493 1495 1497 1499 1500 1505 1509 1508 1519 1506 1497 1489 1488
1519 1514 1509 1502 1495 1488 1482 1477 1473 1469 1465 1463 1461 1458 1455 1452 1449 1449 1448 1447 1447 1449 1454 1459 1461 1465 1474 1476 1477 1482 1483 1487 1489 1493 1495 1497 1499 1502 1504 1510 1519 1510 1520 1507 1503 1489 1487
1521 1515 1509 1502 1496 1490 1482 1476 1472 1469 1466 1464 1462 1460 1458 1454 1451 1450 1449 1450 1455 1461 1460 1463 1466 1469 1473 1477 1480 1483 1487 1489 1492 1494 1498 1498 1504 1511 1504 1503 1505 1506 1509 1509 1495 1487 1488
1520 1516 1510 1502 1498 1492 1485 1477 1471 1469 1467 1466 1464 1462 1460 1458 1456 1452 1451 1453 1460 1464 1466 1469 1471 1472 1476 1480 1483 1487 1490 1492 1493 1497 1497 1501 1504 1497 1498 1502 1503 1504 1507 1499 1488 1480 1483
1521 1516 1509 1505 1500 1493 1486 1477 1472 1469 1468 1467 1466 1464 1462 1461 1460 1457 1455 1459 1462 1464 1469 1477 1477 1478 1482 1485 1485 1489 1492 1492 1492 1495 1498 1501 1496 1492 1497 1500 1503 1503 1505 1498 1493 1481 1473
1522 1515 1509 1506 1501 1495 1489 1481 1475 1472 1470 1469 1468 1466 1464 1463 1465 1461 1461 1462 1465 1466 1477 1487 1484 1484 1486 1486 1488 1490 1492 1494 1493 1495 1496 1498 1493 1494 1495 1499 1500 1496 1488 1487 1486 1484 1473
1524 1517 1513 1508 1504 1499 1493 1487 1482 1477 1473 1471 1469 1468 1467 1466 1467 1465 1467 1466 1467 1467 1483 1491 1487 1488 1488 1489 1490 1492 1493 1494 1492 1490 1493 1494 1490 1491 1491 1488 1490 1487 1482 1480 1477 1474 1473
1525 1521 1517 1511 1505 1500 1496 1492 1488 1484 1478 1474 1472 1470 1469 1469 1469 1468 1467 1468 1468 1477 1487 1489 1490 1490 1490 1490 1491 1492 1495 1496 1494 1491 1489 1489 1488 1489 1487 1485 1485 1482 1481 1475 1473 1472 1466
1527 1523 1518 1510 1504 1499 1496 1493 1489 1487 1486 1479 1475 1473 1470 1471 1472 1471 1469 1470 1480 1491 1492 1490 1491 1491 1491 1491 1493 1494 1495 1497 1496 1496 1496 1487 1484 1483 1483 1483 1478 1482 1480 1477 1478 1458 1457
1529 1523 1518 1513 1507 1503 1498 1494 1490 1487 1485 1485 1480 1476 1474 1471 1471 1471 1472 1477 1485 1485 1487 1490 1491 1494 1493 1492 1493 1493 1495 1495 1494 1497 1494 1496 1495 1480 1479 1479 1475 1473 1472 1472 1465 1467 1453
1529 1524 1519 1514 1511 1505 1500 1494 1491 1488 1484 1482 1481 1480 1474 1473 1472 1472 1474 1481 1484 1486 1488 1489 1492 1490 1493 1492 1493 1494 1495 1493 1490 1494 1494 1485 1482 1475 1475 1474 1475 1469 1470 1469 1464 1459 1455
1530 1525 1520 1516 1512 1507 1501 1497 1494 1490 1485 1481 1479 1479 1476 1476 1474 1474 1478 1482 1488 1487 1488 1490 1489 1489 1489 1491 1493 1495 1491 1488 1488 1489 1491 1486 1484 1472 1470 1474 1472 1472 1470 1467 1466 1459 1453
1530 1526 1520 1516 1511 1507 1502 1499 1495 1490 1485 1481 1480 1481 1480 1478 1479 1477 1491 1493 1492 1489 1489 1490 1489 1490 1488 1491 1488 1489 1488 1485 1484 1486 1488 1487 1485 1474 1471 1471 1466 1471 1469 1469 1470 1464 1456
1531 1526 1521 1516 1511 1507 1504 1499 1493 1489 1486 1483 1480 1484 1481 1479 1483 1491 1498 1496 1494 1492 1490 1489 1489 1486 1488 1489 1491 1490 1485 1483 1481 1483 1486 1482 1483 1483 1466 1462 1460 1461 1462 1465 1466 1462 1467
1530 1526 1522 1516 1512 1507 1503 1499 1493 1488 1486 1484 1484 1485 1485 1480 1498 1503 1497 1495 1495 1492 1492 1491 1489 1488 1487 1488 1489 1486 1484 1480 1480 1481 1479 1479 1482 1480 1466 1464 1461 1466 1464 1462 1463 1467 1467
1530 1525 1522 1517 1512 1507 1503 1499 1494 1491 1488 1486 1486 1490 1487 1487 1497 1499 1504 1501 1497 1493 1493 1492 1491 1487 1487 1490 1489 1486 1485 1480 1478 1477 1476 1477 1482 1480 1483 1475 1474 1470 1465 1460 1460 1466 1461
1530 1525 1521 1517 1513 1509 1503 1499 1494 1491 1489 1488 1487 1494 1493 1502 1502 1503 1502 1503 1502 1499 1494 1493 1493 1495 1495 1492 1491 1491 1487 1483 1478 1477 1476 1477 1479 1485 1477 1474 1473 1469 1469 1465 1462 1462 1460
1528 1525 1521 1517 1514 1509 1504 1500 1497 1493 1491 1490 1491 1493 1495 1498 1499 1499 1503 1506 1505 1502 1499 1498 1499 1497 1494 1497 1498 1496 1493 1488 1485 1480 1479 1478 1484 1480 1473 1473 1474 1467 1466 1463 1463 1463 1463
1526 1525 1522 1518 1514 1510 1506 1502 1500 1497 1495 1494 1493 1494 1495 1498 1500 1505 1510 1507 1506 1504 1501 1499 1500 1499 1495 1494 1493 1490 1489 1488 1487 1487 1484 1483 1483 1485 1481 1478 1471 1468 1462 1464 1462 1463 1464
1524 1523 1521 1518 1514 1511 1507 1503 1502 1500 1498 1498 1497 1497 1497 1501 1498 1497 1501 1504 1502 1503 1504 1499 1498 1497 1496 1491 1487 1485 1486 1485 1485 1483 1483 1484 1487 1494 1492 1480 1486 1461 1461 1461 1462 1460 1459
1523 1521 1520 1518 1515 1511 1508 1505 1503 1502 1501 1502 1501 1499 1497 1500 1499 1500 1498 1499 1501 1499 1499 1497 1496 1496 1493 1490 1490 1489 1490 1483 1481 1481 1482 1482 1486 1491 1495 1502 1470 1458 1459 1460 1459 1456 1452
1521 1519 1518 1517 1515 1512 1510 1507 1505 1504 1504 1503 1505 1504 1500 1497 1499 1496 1498 1498 1497 1498 1497 1493 1493 1492 1491 1492 1495 1491 1492 1489 1486 1486 1480 1481 1484 1490 1490 1489 1465 1458 1457 1457 1458 1466 1450
1518 1517 1515 1515 1514 1512 1510 1508 1507 1506 1504 1504 1504 1504 1505 1502 1495 1493 1493 1495 1496 1495 1496 1493 1489 1489 1488 1493 1496 1501 1503 1494 1493 1489 1483 1488 1488 1488 1491 1494 1472 1460 1458 1458 1465 1462 1450
1515 1514 1513 1513 1512 1510 1509 1508 1506 1506 1504 1503 1502 1503 1503 1503 1499 1496 1493 1491 1493 1495 1499 1497 1496 1490 1488 1492 1495 1497 1501 1497 1498 1490 1483 1485 1487 1489 1491 1490 1484 1455 1459 1462 1455 1450 1449
1511 1510 1510 1510 1510 1509 1508 1506 1506 1506 1505 1503 1500 1499 1501 1501 1498 1497 1495 1493 1492 1490 1493 1492 1497 1499 1497 1497 1497 1497 1494 1496 1494 1490 1481 1487 1477 1478 1476 1466 1452 1451 1450 1449 1449 1449 1448
Wind_Speed
32 31 29 28 29 32 35 40 43 49 37 10 14 11 5 2 4 6 6 8 11 9 8 10 11 13 18 10 8 5 9 15 12 13 8 11 10 5 4 3 1 1 3 6 9 19 18
34 27 27 29 29 32 33 37 38 44 51 36 22 19 12 6 4 4 7 8 10 11 2 4 16 18 23 4 12 9 16 13 11 7 12 9 5 7 6 2 1 2 6 14 12 22 14
29 26 26 29 30 33 34 34 36 36 37 38 25 19 14 13 11 10 10 9 11 8 2 7 19 28 12 11 9 8 6 7 6 8 11 8 8 4 4 2 2 5 6 7 6 5 5
27 26 27 29 30 31 31 33 32 31 29 27 23 18 14 12 9 9 11 10 8 6 7 14 17 15 8 16 15 14 14 5 8 8 6 5 5 6 3 2 4 4 2 5 3 2 4
27 26 27 28 29 30 32 31 28 28 27 24 20 16 12 9 8 8 9 11 14 8 11 18 18 11 8 16 12 15 13 11 10 8 8 6 5 3 3 3 4 4 2 3 8 2 2
28 26 27 29 28 29 33 32 27 24 24 23 20 16 13 13 12 10 7 10 18 21 21 15 12 9 10 6 15 15 12 11 8 7 6 3 3 3 3 3 2 2 2 5 7 5 3
27 26 26 28 29 29 29 31 27 23 21 20 19 18 16 14 12 11 7 19 15 10 15 11 9 11 12 15 16 15 12 11 11 6 3 2 4 4 7 5 4 1 3 10 13 14 9
29 27 27 29 30 30 28 26 28 20 17 16 18 17 17 10 13 14 8 11 9 7 10 20 14 15 12 14 8 9 13 4 3 3 2 4 4 8 6 5 5 6 8 12 13 12 6
31 25 27 28 31 31 28 30 26 22 17 15 17 17 14 12 10 12 21 18 13 9 5 10 12 9 9 8 5 11 12 6 2 3 5 4 3 6 6 2 4 6 8 11 12 11 13
33 24 26 27 29 29 29 33 27 24 21 16 15 16 11 6 6 13 14 10 13 9 4 6 6 5 3 3 5 12 11 2 1 5 4 4 5 4 5 5 7 11 9 15 16 9 4
32 29 25 26 27 28 27 33 30 24 20 17 15 15 14 13 7 12 6 7 9 2 5 4 2 3 4 5 9 5 10 3 3 2 3 6 2 3 6 6 11 8 6 9 12 13 12
31 31 27 25 26 26 26 24 29 25 21 19 18 16 14 14 13 10 11 12 3 5 4 2 2 5 2 5 3 4 4 8 6 4 2 6 2 3 5 4 7 7 9 13 11 6 4
31 30 29 24 22 22 24 21 21 23 21 21 23 20 17 15 11 8 5 4 5 5 1 3 5 2 1 2 3 4 4 2 1 2 2 3 5 3 4 5 3 8 6 4 4 3 4
30 30 29 25 24 21 19 16 14 14 12 12 19 27 25 19 9 3 2 4 8 4 4 0 4 5 3 2 2 1 2 3 5 3 2 2 5 7 5 7 2 5 3 2 4 3 4
29 29 29 27 23 21 18 12 11 13 13 9 9 19 28 22 15 6 4 5 3 2 3 5 3 1 1 1 2 4 4 3 3 9 4 2 5 2 6 4 3 2 3 2 4 3 3
27 27 27 26 26 22 18 17 15 17 17 14 7 3 24 16 16 14 5 7 3 3 2 2 2 1 2 2 2 1 2 4 3 8 8 2 5 5 1 4 7 4 3 1 1 3 3
27 27 26 27 25 23 21 20 18 16 15 16 9 1 18 9 12 12 4 4 4 5 2 3 1 2 1 3 3 2 2 3 4 5 10 3 2 5 1 4 1 3 2 2 2 2 2
25 26 26 26 27 25 24 22 18 17 17 14 7 3 15 7 7 4 2 4 4 3 2 2 2 1 4 4 2 2 3 4 6 8 5 6 2 4 5 2 3 2 1 4 2 2 1
27 25 25 26 27 26 23 21 20 16 19 16 5 4 18 5 4 3 5 3 1 6 4 5 3 3 3 2 1 1 2 3 3 7 3 3 0 4 4 2 2 3 5 4 4 2 2
26 27 25 25 27 27 24 24 17 14 13 10 3 3 8 15 7 4 4 5 5 7 1 3 4 1 3 4 4 1 5 2 5 3 1 2 2 2 3 5 3 5 9 6 3 2 1
23 25 27 26 26 28 26 25 13 9 10 6 4 2 2 1 6 4 2 3 5 7 8 15 4 5 3 4 5 5 3 5 3 9 2 2 1 3 5 5 3 3 4 7 3 2 2
22 22 25 26 25 26 26 21 13 9 8 6 2 3 3 4 3 3 4 4 5 6 5 5 4 6 6 4 1 4 4 4 2 6 5 4 2 1 3 0 3 3 4 2 4 4 4
22 20 22 24 24 24 23 19 14 10 8 4 6 6 2 1 2 4 1 1 3 6 1 3 3 3 4 3 11 14 12 10 6 3 3 3 3 4 4 4 5 2 2 1 0 1 5
21 19 19 21 22 21 19 17 11 9 9 6 5 2 2 0 1 5 6 2 1 2 2 7 4 1 5 19 10 4 6 9 7 5 2 2 2 1 3 5 3 4 2 3 3 5 6
20 18 16 17 19 19 16 13 9 7 8 7 6 3 1 1 1 1 8 5 2 3 3 3 3 7 14 8 3 4 4 3 0 0 2 1 3 2 1 2 6 1 3 4 3 5 7
19 18 15 15 15 16 14 11 8 5 5 7 8 7 2 5 5 3 2 2 4 2 3 4 2 5 7 3 3 2 2 1 4 8 2 3 4 3 1 1 4 2 2 2 2 5 6
19 18 15 13 13 12 11 8 6 4 4 6 8 7 6 5 4 7 4 3 2 1 2 5 3 1 4 2 2 1 3 1 2 2 2 3 2 3 2 3 7 3 2 3 2 5 2
20 19 15 12 12 10 8 6 3 3 4 6 8 8 5 5 8 9 7 6 3 2 1 5 4 2 2 3 2 3 3 2 3 4 3 3 3 4 2 2 6 4 3 5 4 5 6
20 19 15 12 13 11 8 7 4 5 5 5 4 6 9 6 6 9 14 11 9 7 1 1 2 5 5 3 1 1 2 1 4 3 1 3 5 3 7 5 5 9 13 9 8 8 9
Wind_Direction
353 358 2 5 1 0 1 359 357 359 7 288 233 193 163 140 287 306 301 310 317 309 258 254 245 213 201 139 78 57 137 152 159 177 181 152 132 110 110 94 38 121 313 314 296 294 286
358 7 9 8 6 3 3 3 2 8 15 53 83 90 66 44 20 341 334 327 330 313 279 231 213 202 175 134 127 103 156 151 152 158 150 152 134 105 106 87 73 330 297 294 294 279 271
6 7 6 9 11 7 6 6 8 14 16 30 46 59 46 30 21 5 358 343 322 298 232 166 136 170 162 164 139 161 158 134 163 163 143 120 127 116 112 86 358 318 329 309 271 283 250
6 8 8 12 9 9 11 8 9 14 19 20 31 35 26 20 15 357 349 4 337 307 200 167 146 135 65 143 144 150 151 122 136 142 168 136 120 102 51 86 356 344 49 355 290 332 289
5 11 8 9 9 8 11 11 9 12 15 16 16 22 20 13 4 356 9 66 53 56 145 151 141 108 118 142 152 151 160 138 129 128 111 118 119 75 52 68 14 9 288 286 304 218 234
7 9 7 10 8 7 14 11 7 11 15 13 14 11 4 355 0 7 38 76 91 99 120 134 132 86 124 142 137 128 124 144 116 118 92 76 65 62 22 83 238 249 298 286 257 292 185
8 5 8 7 9 7 10 16 13 10 9 15 17 10 2 356 8 12 79 113 95 84 62 56 75 94 129 142 127 126 142 134 118 88 76 63 66 221 220 210 177 157 255 264 267 271 296
8 5 9 4 10 8 7 15 18 12 14 18 23 17 10 34 22 28 91 92 81 99 64 65 85 100 135 121 113 140 160 103 115 91 82 46 236 234 202 213 228 255 276 279 288 273 232
7 8 6 8 13 11 11 17 35 19 14 21 23 22 28 52 52 78 73 69 116 102 73 34 52 78 119 113 111 161 163 125 108 147 185 185 235 19 164 193 241 249 248 269 262 299 269
7 11 7 10 16 13 14 26 33 28 30 29 30 30 39 25 36 47 71 66 135 94 87 13 22 39 112 161 69 168 180 75 206 216 191 236 250 221 221 238 203 275 231 249 265 288 289
10 3 11 12 16 14 13 26 27 33 41 45 46 47 58 66 72 53 62 126 125 31 76 6 33 80 91 35 138 183 193 300 301 305 146 253 253 228 252 246 170 242 247 259 263 267 291
9 8 8 9 13 16 11 13 23 25 33 43 47 49 50 55 54 58 106 123 21 42 62 35 54 119 30 159 136 117 175 240 290 315 262 245 243 259 221 245 221 283 293 278 258 247 248
7 8 4 8 15 18 13 16 35 30 21 39 43 40 38 39 48 45 75 30 52 69 202 41 97 171 47 102 121 185 185 216 262 331 295 333 251 208 195 287 239 229 271 303 337 216 241
6 5 7 3 7 12 22 26 20 24 20 13 13 33 34 30 15 14 106 52 67 46 67 332 112 113 98 203 47 108 99 284 255 240 306 289 329 194 180 222 268 188 227 266 300 296 293
6 5 5 6 6 8 8 21 18 6 359 347 324 36 27 20 32 81 127 43 71 65 117 127 180 134 108 231 205 216 214 262 264 179 222 285 272 148 201 178 207 45 234 192 266 231 276
3 4 4 2 4 5 3 356 354 352 353 355 354 2 24 23 37 53 60 84 77 37 77 53 86 341 115 111 156 192 217 198 261 180 209 318 289 220 175 148 260 235 325 307 250 299 297
1 2 1 2 357 357 3 359 352 344 342 341 352 349 11 24 55 62 53 31 339 356 26 151 196 141 195 186 217 205 241 237 219 180 191 297 241 294 33 197 167 196 242 236 270 272 309
356 360 359 359 358 353 351 360 356 348 348 351 16 37 8 53 53 44 44 330 342 310 351 300 235 185 181 177 192 266 257 223 204 163 197 209 216 280 245 159 221 208 226 189 242 349 285
352 353 358 357 357 354 352 354 352 353 352 8 21 15 29 83 82 353 330 339 281 8 16 19 13 25 17 177 109 233 284 282 228 181 230 174 286 318 13 28 7 20 313 241 134 208 264
347 350 354 357 357 355 356 347 348 353 359 19 24 36 40 57 71 91 11 351 351 356 13 24 1 335 52 24 354 27 344 302 326 336 237 128 115 142 180 252 315 324 329 357 155 124 75
345 347 348 355 358 356 355 354 353 0 4 15 50 36 77 15 29 66 65 356 347 5 354 22 37 35 297 16 349 7 330 324 346 4 28 81 238 157 241 245 294 278 321 24 79 273 112
341 344 346 350 358 0 357 7 1 9 7 35 63 107 79 92 103 85 360 4 22 330 5 355 50 330 15 82 140 298 348 20 331 327 8 357 279 35 273 204 321 293 355 48 46 48 54
331 342 345 346 355 3 2 8 356 10 16 32 66 97 41 87 91 83 276 322 345 342 27 75 309 321 3 302 294 279 258 271 261 320 312 16 0 20 276 359 316 321 271 4 272 169 156
317 334 344 344 351 2 7 11 11 17 35 41 60 69 75 192 152 162 171 196 238 318 254 313 347 19 322 322 308 274 259 264 259 273 253 334 94 102 269 353 16 241 221 191 239 243 214
308 323 338 342 346 356 5 10 16 26 35 24 12 12 43 156 192 213 162 167 265 312 214 239 300 322 326 329 18 357 340 332 323 114 348 38 111 1 49 223 285 263 217 191 167 282 197
301 308 325 336 341 348 359 10 15 33 38 16 2 3 340 135 235 216 199 217 168 212 317 244 281 326 357 59 39 14 264 251 308 329 137 91 77 114 13 55 260 265 274 113 82 287 204
301 295 311 325 333 340 353 10 19 39 22 3 349 335 325 303 222 191 179 199 204 206 235 286 291 215 19 64 51 304 286 246 269 268 279 322 4 191 211 255 289 231 202 114 105 247 188
303 293 297 310 321 324 332 338 348 337 349 17 29 10 349 304 280 236 227 187 195 205 135 349 341 308 76 101 156 196 185 254 326 255 217 205 183 211 149 221 280 173 132 173 225 293 255
301 295 288 296 304 309 306 304 294 293 299 323 12 360 340 289 278 269 252 242 243 229 248 241 270 327 336 46 352 106 245 181 175 266 190 264 196 204 188 220 219 199 228 248 285 266 239